Weather History for Montauk, NY

Change the Weather History Date:

Sunday, August 18, 2013

  Actual Average (KHTO) Record (KHTO)
Temperature  
Mean Temperature 67 °F -  
Max Temperature 75 °F 78 °F 88 °F (1987)
Min Temperature 61 °F 63 °F 48 °F (1979)
Cooling Degree Days 2    
Growing Degree Days 17 (Base 50)    
Moisture  
Dew Point 61 °F    
Average Humidity 81    
Maximum Humidity 93    
Minimum Humidity 66    
Precipitation  
Precipitation 0.04 in - - ()
Sea Level Pressure  
Sea Level Pressure 30.23 in    
Wind  
Wind Speed 1 mph (NE)    
Max Wind Speed 5 mph    
Max Gust Speed -    
Averages and records for this station are not official NWS values.
T = Trace of Precipitation, MM = Missing Value Source: NWS Daily Summary

Daily Weather History Graph

Daily Weather History Graph

Search for Another Location

Airport:

Trip Planner

Search our weather history database for the weather conditions in past years. The results will help you decide how hot, cold, wet, or windy it might be!

Date:

Astronomy

Aug. 18, 2013 Rise Set
Actual Time 6:00 AM EDT 7:41 PM EDT
Civil Twilight 5:31 AM EDT 8:10 PM EDT
Nautical Twilight 4:55 AM EDT 8:46 PM EDT
Astronomical Twilight 4:17 AM EDT 9:23 PM EDT
Moon 5:45 PM EDT (8/18) 3:05 AM EDT (8/18)
Length of Visible Light 14h 39m
Length of Day
13h 41m
Waxing Gibbous, 92% of the Moon is Illuminated
Aug 18
Waxing Gibbous
Aug 20
Full
Aug 28
Last Quarter
Sep 5
New
Sep 12
First Quarter

Hourly Weather History & Observations

Time (EDT) Temp. Dew Point Humidity Pressure Visibility Wind Dir Wind Speed Gust Speed Precip Events Conditions
12:54 AM 61.0 °F 57.9 °F 90% 30.28 in - Calm Calm - N/A   Unknown
1:54 AM 61.0 °F 57.9 °F 90% 30.27 in - Calm Calm - N/A   Unknown
2:54 AM 62.1 °F 59.0 °F 90% 30.27 in - Calm Calm - N/A   Unknown
3:54 AM 64.0 °F 61.0 °F 90% 30.27 in - Calm Calm - N/A   Unknown
4:54 AM 63.0 °F 61.0 °F 93% 30.27 in - Calm Calm - N/A   Unknown
5:54 AM 63.0 °F 60.1 °F 90% 30.28 in - Calm Calm - N/A   Unknown
6:54 AM 66.9 °F 64.0 °F 90% 30.27 in - Calm Calm - N/A   Unknown
7:54 AM 69.1 °F 64.9 °F 87% 30.28 in - NE 3.5 mph - N/A   Unknown
8:54 AM 70.0 °F 60.1 °F 71% 30.28 in - Calm Calm - N/A   Unknown
9:54 AM 72.0 °F 62.1 °F 71% 30.28 in - Variable 3.5 mph - N/A   Unknown
10:54 AM 71.1 °F 61.0 °F 70% 30.28 in - Calm Calm - N/A   Unknown
11:54 AM 70.0 °F 64.0 °F 81% 30.27 in - East 3.5 mph - N/A   Unknown
12:54 PM 73.9 °F 63.0 °F 68% 30.25 in - Variable 4.6 mph - N/A   Unknown
1:54 PM 72.0 °F 63.0 °F 73% 30.25 in - Variable 4.6 mph - N/A   Unknown
2:54 PM 72.0 °F 62.1 °F 71% 30.22 in - Variable 3.5 mph - N/A   Unknown
3:54 PM 71.1 °F 59.0 °F 66% 30.19 in - ENE 3.5 mph - N/A   Unknown
4:54 PM 68.0 °F 61.0 °F 78% 30.19 in - Calm Calm - N/A   Unknown
5:54 PM 68.0 °F 61.0 °F 78% 30.17 in - Calm Calm - N/A   Unknown
6:54 PM 68.0 °F 60.1 °F 76% 30.16 in - NNE 3.5 mph - N/A   Unknown
7:54 PM 66.9 °F 61.0 °F 81% 30.16 in - North 3.5 mph - N/A   Unknown
8:54 PM 64.0 °F 59.0 °F 84% 30.13 in - Variable 4.6 mph - 0.04 in   Unknown
9:54 PM 64.0 °F 60.1 °F 87% 30.16 in - Calm Calm - N/A   Unknown
10:54 PM 63.0 °F 57.9 °F 84% 30.13 in - Calm Calm - N/A   Unknown
11:54 PM 62.1 °F 59.0 °F 90% 30.13 in - Calm Calm - N/A   Unknown